name,date,ws,wd,pm25
San Pablo,4/8/2016 0:00,3.2,215.5,9
San Pablo,4/8/2016 1:00,2.1,213.89999,11
San Pablo,4/8/2016 2:00,1.6,198.7,13
San Pablo,4/8/2016 3:00,0.6,224,12
San Pablo,4/8/2016 4:00,1.2,222.10001,13
San Pablo,4/8/2016 5:00,0.8,274,13
San Pablo,4/8/2016 6:00,0.9,302.79999,16
San Pablo,4/8/2016 7:00,1.2,298.39999,11
San Pablo,4/8/2016 8:00,1.4,202.3,8
San Pablo,4/8/2016 9:00,1.6,199.2,8
San Pablo,4/8/2016 10:00,0.8,222.7,10
San Pablo,4/8/2016 11:00,3.3,187.10001,10
San Pablo,4/8/2016 12:00,4.2,196.60001,11
San Pablo,4/8/2016 13:00,5.7,207.8,9
San Pablo,4/8/2016 14:00,6.5,204.60001,9
San Pablo,4/8/2016 15:00,6.9,209.10001,10
San Pablo,4/8/2016 16:00,6.7,209.39999,11
San Pablo,4/8/2016 17:00,6.1,217.60001,11
San Pablo,4/8/2016 18:00,4.1,205.89999,10
San Pablo,4/8/2016 19:00,3.5,194,9
San Pablo,4/8/2016 20:00,3.5,214.3,9
San Pablo,4/8/2016 21:00,5.4,216.8,6
San Pablo,4/8/2016 22:00,4,226.2,4
San Pablo,4/8/2016 23:00,0,286.5,3
San Pablo,4/9/2016 0:00,0,235.39999,5
San Pablo,4/9/2016 1:00,0.2,276.79999,3
San Pablo,4/9/2016 2:00,0.1,259.89999,5
San Pablo,4/9/2016 3:00,1.2,205.8,8
San Pablo,4/9/2016 4:00,0.2,195,5
San Pablo,4/9/2016 5:00,1.1,186.60001,5
San Pablo,4/9/2016 6:00,1.1,187.39999,5
San Pablo,4/9/2016 7:00,2.6,196.39999,3
San Pablo,4/9/2016 8:00,4,208.10001,2
San Pablo,4/9/2016 9:00,4.8,203.5,2
San Pablo,4/9/2016 10:00,4.2,205.3,17
San Pablo,4/9/2016 11:00,4,207.8,-3
San Pablo,4/9/2016 12:00,4.8,212.3,-8
San Pablo,4/9/2016 13:00,4.9,215.3,-8
San Pablo,4/9/2016 14:00,4.4,206.39999,-2
San Pablo,4/9/2016 15:00,3.5,206,-1
San Pablo,4/9/2016 16:00,2.5,205.39999,0
San Pablo,4/9/2016 17:00,0.6,216.60001,3
San Pablo,4/9/2016 18:00,0.1,167.60001,2
San Pablo,4/9/2016 19:00,0.2,239.3,4
San Pablo,4/9/2016 20:00,1.4,246.8,13
San Pablo,4/9/2016 21:00,2.5,216.3,8
San Pablo,4/9/2016 22:00,3,197.39999,4
San Pablo,4/9/2016 23:00,2.4,211.39999,5
